星链-4333 (STARLINK-4333 )

导读

STARLINK-4333是美国SpaceX公司星链星座的V2.0 mini版本卫星,隶属于星链Group 4-16任务,于2022年7月11日由猎鹰9号火箭发射升空,卫星重约297kg,运行在近地轨道,主要为全球提供高速宽带互联网服务,目前仍在轨正常工作。

基本信息
目录编号:
53088
目录名称:
STARLINK-4333
国际标识:
2022-077AX
轨道中心:
EARTH
卫星名称:
星链-4333
卫星全名:
星链-4333 (STARLINK-4333 )
卫星状态:
在轨 (已飞行1516 天)
发射日期:
2022-07-11 UTC
国别 :
美国 (US)
星等 :
--
轨道信息
数据来源 国际轨道数据
星历时间: 2026-09-04T16:00:02+0800
11小时前
查看轨道信息
半长轴: 6848.621km
偏心率: 0.0000967
轨道倾角: 97.285°
近地点辐角 47.803°
升交点赤经 62.312°
平近点角 8.115°
近地点: 469.821km
远地点: 471.147km
周期: 94.008分钟
每日圈数: 15.317862
详细信息
固有亮度:
5
最大亮度:
2.5
卫星平台:
Starlink v1.5
覆盖范围:
全球
运营商:
太空探索技术公司
运营商所在国:
美国
制造商(研发单位):
太空探索技术公司
制造商所在国:
美国
使用方式:
暂无
卫星简介
星链(Starlink)计划是由太空探索技术公司(SpaceX)提出的一个巨型低轨卫星互联网星座项目,计划在2019年至2024年间在太空搭建由约1.2万颗卫星组成的“星链”网络,其中1584颗将部署在地球上空550千米处的近地轨道,并从2020年开始工作。该卫星仍在工作。
2D轨道图
3D轨道图
轨道高度分析图
轨道倾角分析图
轨道综合分析图
查看轨道综合分析图
交会数据列表
事件ID 空间交会对象 最接近时刻(TCA) 交会距离 交会风险概率(CRP) 交会风险指数(CRI) 操作
CDM_260906-153704-606105-308821
2026-09-06T
15:37:33+0000
0.701 km
远距离
6.489575E-5 中风险 0.71
CDM_260907-031705-284005-308821
2026-09-07T
03:17:16+0000
0.861 km
远距离
4.452104E-5 中风险 0.68
CDM_260907-065105-308805-359521
2026-09-07T
06:51:25+0000
1.034 km
极远距离
1.812594E-5 中风险 0.6
CDM_260906-145004-606105-308821
2026-09-06T
14:50:33+0000
1.076 km
极远距离
1.584679E-5 中风险 0.59
CDM_260903-133905-308806-863321
MISR-C-2 (68633)
2026-09-03T
13:39:35+0000
1.551 km
极远距离
6.058872E-6 低风险 0.51
CDM_260903-024505-308806-381321
2026-09-03T
02:45:31+0000
1.712 km
极远距离
4.327022E-6 低风险 0.48
CDM_260904-021805-308806-381821
2026-09-04T
02:18:22+0000
1.775 km
极远距离
3.887451E-6 低风险 0.47
CDM_260901-142705-308805-706521
2026-09-01T
14:27:00+0000
2.077 km
极远距离
2.481928E-6 低风险 0.43
CDM_260902-185505-308805-545321
2026-09-02T
18:55:15+0000
1.812 km
极远距离
2.330691E-6 低风险 0.42
CDM_260905-055605-308805-901221
2026-09-05T
05:56:21+0000
2.340 km
极远距离
1.741594E-6 低风险 0.4